Home   Weather   Buenaventura   Past weeks

Flag for Colombia Past Weather in Buenaventura, Colombia — Yesterday and Last 2 Weeks

Now
84 °F

Partly sunny.


Feels Like: 87 °F
Forecast: N/A
Wind: 10 mph from Northwest

Location: Cali / Alfonso Bonillaaragon

Current Time: Dec 10, 2016 at 5:46:33 pm

Latest Report: Dec 10, 2016 at 5:00 pm


Visibility: N/A

Pressure: 29.87 "Hg

Humidity: 58%

Dew Point: 68 °F

Location of BuenaventuraLocation

Past Weather in Buenaventura — Graph

°F

Buenaventura Temperature Yesterday

Maximum temperature yesterday: 84 °F (at 4:00 pm)
Minimum temperature yesterday: 66 °F (at 3:00 am)
Average temperature yesterday: 74 °F

High & Low Weather Summary for the Past Weeks

 TemperatureHumidityPressure
High90 °F (Nov 30, 3:00 pm)100% (Nov 25, 8:00 pm)30.09 "Hg (Nov 25, 8:00 pm)
Low63 °F (Dec 6, 6:00 am)46% (Nov 30, 3:00 pm)29.82 "Hg (Nov 28, 3:00 pm)
Average73 °F84%29.98 "Hg
* Reported Nov 25 4:00 pm — Dec 10 4:00 pm, Buenaventura, Weather by CustomWeather, © 2016

Note: Actual official high and low records may vary slightly from our data, if they occured in-between our weather recording intervals... More about our weather records

Advertising

Buenaventura Weather History for the Previous 24 Hours

Scroll right to see more
 ConditionsComfort  
Time TempWeatherWind HumidityBarometerVisibility
4:00 pm
Sat, Dec 10
86 °FScattered clouds.14 mph55%29.87 "HgN/A
3:00 pm86 °FScattered clouds.9 mph55%29.88 "HgN/A
1:00 pm86 °FScattered clouds.7 mph55%29.96 "HgN/A
12:00 pm82 °FScattered clouds.3 mph58%30.00 "HgN/A
11:00 am79 °FScattered clouds.5 mph61%30.03 "HgN/A
10:00 am77 °FPartly sunny.2 mph69%30.06 "HgN/A
9:00 am77 °FPassing clouds.3 mph69%30.09 "HgN/A
8:00 am75 °FScattered clouds.2 mph78%30.08 "Hg5 mi
7:00 am70 °FClear.2 mph94%30.06 "Hg6 mi
6:00 am66 °FPassing clouds.2 mph100%30.03 "HgN/A
5:00 am68 °FPartly cloudy.No wind100%30.02 "Hg6 mi
4:00 am68 °FPassing clouds.2 mph100%30.01 "HgN/A
3:00 am70 °FPassing clouds.3 mph94%30.00 "HgN/A
2:00 am68 °FPassing clouds.3 mph94%30.01 "HgN/A
1:00 am70 °FPassing clouds.3 mph88%30.03 "HgN/A
12:00 am68 °FPassing clouds.6 mph94%30.04 "HgN/A
11:00 pm
Fri, Dec 9
68 °FPassing clouds.3 mph94%30.05 "HgN/A
10:00 pm72 °FPassing clouds.10 mph83%30.04 "HgN/A
9:00 pm68 °FPassing clouds.7 mph88%30.01 "HgN/A
8:00 pm73 °FPassing clouds.6 mph74%29.99 "HgN/A
7:00 pm73 °FPassing clouds.12 mph78%29.95 "HgN/A
6:00 pm77 °FPassing clouds.12 mph69%29.92 "HgN/A
5:00 pm81 °FScattered clouds.12 mph62%29.90 "HgN/A
Weather by CustomWeather, © 2016

See weather overviewHow to use our weather pages